EW8041 Weather Reports


time (UTC)temp
C
wind
direction
speed
KPH
gust
KPH
rain 1hr
cm
rain 24hr
cm
rain mn
cm
humidity
%
barometer
mb
20260504110522 7 0.0 0.0 0.00 0.00 0.00 83 1016.2
20260504100517 7 0.0 0.0 0.00 0.00 0.00 82 1015.8
20260504081532 7 0.0 0.0 0.00 0.00 0.00 78 1016.1
20260504080528 7 0.0 0.0 0.00 0.00 0.00 78 1016.1
20260504050515 9 0.0 0.0 0.00 0.00 0.00 69 1017.4
20260504045532 9 0.0 0.0 0.00 0.00 0.00 68 1017.3
20260504044527 9 207 0.0 1.6 0.00 0.00 0.00 68 1017.3
20260504043523 9 0.0 0.0 0.00 0.00 0.00 67 1017.4
20260504042539 9 0.0 0.0 0.00 0.00 0.00 66 1017.2
20260504041536 9 0.0 0.0 0.00 0.00 0.00 65 1017.2
20260504040531 10 0.0 0.0 0.00 0.00 0.00 65 1017.2
20260504035547 10 0.0 0.0 0.00 0.00 0.00 64 1017.3
20260504034522 10 0.0 0.0 0.00 0.00 0.00 63 1017.5
20260504033518 10 207 0.0 1.6 0.00 0.00 0.00 62 1017.6
20260504032554 10 0.0 0.0 0.00 0.00 0.00 61 1017.7
20260504031530 11 207 0.0 1.6 0.00 0.00 0.00 61 1017.8
20260504030545 11 207 0.0 1.6 0.00 0.00 0.00 60 1018.0
20260504025541 11 0.0 0.0 0.00 0.00 0.00 59 1018.0
20260504024516 11 207 0.0 1.6 0.00 0.00 0.00 58 1017.7
20260504023532 11 207 0.0 1.6 0.00 0.00 0.00 57 1017.8
20260504022528 12 207 0.0 1.6 0.00 0.00 0.00 56 1017.8
20260504021524 12 242 1.6 1.6 0.00 0.00 0.00 55 1017.5
20260504020520 12 0.0 0.0 0.00 0.00 0.00 55 1017.5
20260504015516 12 0.0 0.0 0.00 0.00 0.00 54 1017.4
20260504014532 13 0.0 0.0 0.00 0.00 0.00 53 1017.1
20260504013548 13 0.0 0.0 0.00 0.00 0.00 52 1017.1
20260504012523 14 256 0.0 1.6 0.00 0.00 0.00 51 1017.0
20260504011519 15 256 0.0 1.6 0.00 0.00 0.00 50 1016.8
20260504010535 15 256 0.0 1.6 0.00 0.00 0.00 49 1017.0
20260504005551 16 256 0.0 1.6 0.00 0.00 0.00 48 1017.0
20260504004527 16 256 0.0 1.6 0.00 0.00 0.00 47 1016.9
20260504003523 17 256 0.0 1.6 0.00 0.00 0.00 46 1016.7
20260504002539 18 239 1.6 3.2 0.00 0.00 0.00 46 1016.9
20260504001534 18 258 3.2 4.8 0.00 0.00 0.00 46 1017.0
20260504000531 18 275 3.2 6.4 0.00 0.00 0.00 46 1017.0
20260503235526 18 286 3.2 6.4 0.00 0.00 0.00 46 1017.0
20260503234522 19 274 3.2 9.7 0.00 0.00 0.00 46 1017.0
20260503233518 19 272 3.2 9.7 0.00 0.00 0.00 45 1017.2
20260503232554 19 266 3.2 9.7 0.00 0.00 0.00 44 1017.1
20260503231530 19 264 1.6 9.7 0.00 0.00 0.00 46 1017.2
20260503230525 20 248 3.2 6.4 0.00 0.00 0.00 47 1017.3
20260503225521 20 273 6.4 11.3 0.00 0.00 0.00 47 1017.3
20260503224517 20 259 3.2 11.3 0.00 0.00 0.00 47 1017.3
20260503223533 20 280 3.2 9.7 0.00 0.00 0.00 47 1017.4
20260503222529 20 311 1.6 9.7 0.00 0.00 0.00 46 1017.5
20260503221525 20 176 3.2 9.7 0.00 0.00 0.00 48 1017.5
20260503220521 20 258 1.6 6.4 0.00 0.00 0.00 48 1017.6
20260503215517 20 254 1.6 9.7 0.00 0.00 0.00 48 1017.6
20260503214533 20 260 4.8 11.3 0.00 0.00 0.00 48 1017.8
20260503213529 20 240 3.2 9.7 0.00 0.00 0.00 48 1017.9
20260503212524 20 276 3.2 11.3 0.00 0.00 0.00 46 1018.2
20260503211520 20 258 4.8 14.5 0.00 0.00 0.00 46 1018.2
20260503210516 20 276 3.2 9.7 0.00 0.00 0.00 45 1018.2
20260503205532 20 242 4.8 12.9 0.00 0.00 0.00 47 1018.1
20260503204648 21 254 4.8 11.3 0.00 0.00 0.00 48 1018.5
20260503203524 21 247 4.8 11.3 0.00 0.00 0.00 47 1018.5
20260503202540 21 219 6.4 17.7 0.00 0.00 0.00 48 1018.7
20260503201536 20 253 4.8 16.1 0.00 0.00 0.00 48 1019.0
20260503200531 20 245 4.8 11.3 0.00 0.00 0.00 50 1019.2
20260503195527 20 252 1.6 12.9 0.00 0.00 0.00 50 1019.4
20260503194522 20 244 4.8 14.5 0.00 0.00 0.00 52 1019.5
20260503193518 20 271 3.2 12.9 0.00 0.00 0.00 53 1019.7
20260503192555 20 262 6.4 16.1 0.00 0.00 0.00 54 1020.0
20260503191530 20 245 6.4 17.7 0.00 0.00 0.00 54 1020.0
20260503190546 20 247 4.8 11.3 0.00 0.00 0.00 54 1020.3
20260503185521 19 268 4.8 14.5 0.00 0.00 0.00 54 1020.3
20260503184517 20 253 3.2 11.3 0.00 0.00 0.00 55 1020.4
20260503183554 19 243 4.8 12.9 0.00 0.00 0.00 55 1020.5
20260503182529 19 261 4.8 11.3 0.00 0.00 0.00 57 1020.5
20260503181526 19 259 3.2 9.7 0.00 0.00 0.00 55 1020.6
20260503180523 18 285 3.2 12.9 0.00 0.00 0.00 56 1020.8
20260503175537 18 268 3.2 9.7 0.00 0.00 0.00 55 1020.9
20260503174533 18 258 4.8 11.3 0.00 0.00 0.00 56 1021.0
20260503173529 18 221 3.2 9.7 0.00 0.00 0.00 60 1021.1
20260503172524 18 267 4.8 11.3 0.00 0.00 0.00 61 1021.2
20260503171519 18 76 1.6 3.2 0.00 0.00 0.00 59 1021.4
20260503170535 18 84 3.2 12.9 0.00 0.00 0.00 62 1021.5
20260503150524 16 211 3.2 6.4 0.00 0.00 0.00 76 1022.0
20260503130533 10 98 0.0 1.6 0.00 0.00 0.00 88 1021.7